FW3675 Weather Reports


Display with metric or nautical units.
time (UTC)temp
F
wind
direction
speed
MPH
gust
MPH
rain 1hr
in
rain 24hr
in
rain mn
in
humidity
%
barometer
mb
20220930004535 71 302 5.0 10.0 0.00 0.00 0.00 39 1008.7
20220930003016 72 279 4.0 13.0 0.00 0.00 0.00 38 1008.8
20220930001515 72 281 7.0 14.0 0.00 0.00 0.00 42 1009.0
20220930000118 75 260 5.0 17.0 0.00 0.00 0.00 34 1009.1
20220929234514 75 356 12.0 21.0 0.00 0.00 0.00 34 1009.0
20220929233042 76 20 10.0 15.0 0.00 0.00 0.00 33 1008.7
20220929231518 77 6 10.0 17.0 0.00 0.00 0.00 32 1008.7
20220929230041 78 6 10.0 21.0 0.00 0.00 0.00 30 1008.7
20220929224512 80 351 15.0 24.0 0.00 0.00 0.00 28 1008.9
20220929223016 79 13 7.0 17.0 0.00 0.00 0.00 27 1009.0
20220929221509 78 297 1.0 6.0 0.00 0.00 0.00 29 1009.0
20220929220009 78 157 9.0 14.0 0.00 0.00 0.00 28 1008.8
20220929214510 78 250 7.0 12.0 0.00 0.00 0.00 31 1008.7
20220929213004 78 175 9.0 15.0 0.00 0.00 0.00 30 1008.9
20220929211502 77 211 7.0 18.0 0.00 0.00 0.00 33 1009.0
20220929210101 79 206 18.0 23.0 0.00 0.00 0.00 28 1009.1
20220929204610 79 178 15.0 23.0 0.00 0.00 0.00 28 1009.0
20220929203106 78 168 11.0 17.0 0.00 0.00 0.00 30 1009.1
20220929201601 79 168 11.0 16.0 0.00 0.00 0.00 27 1009.2
20220929200058 79 164 13.0 21.0 0.00 0.00 0.00 28 1009.5
20220929194552 79 150 8.0 12.0 0.00 0.00 0.00 26 1009.6
20220929193050 80 151 4.0 6.0 0.00 0.00 0.00 28 1010.0
20220929191548 81 117 2.0 8.0 0.00 0.00 0.00 28 1010.2
20220929190046 82 155 3.0 11.0 0.00 0.00 0.00 24 1010.3
20220929184546 83 83 5.0 9.0 0.00 0.00 0.00 23 1010.3
20220929183053 81 117 2.0 8.0 0.00 0.00 0.00 25 1010.6
20220929181544 82 137 4.0 12.0 0.00 0.00 0.00 28 1011.0
20220929180036 82 135 5.0 9.0 0.00 0.00 0.00 26 1011.5
20220929174533 81 41 5.0 10.0 0.00 0.00 0.00 27 1011.8
20220929173035 80 115 4.0 9.0 0.00 0.00 0.00 31 1012.0
20220929171529 82 137 3.0 6.0 0.00 0.00 0.00 27 1012.1
20220929170026 80 28 3.0 7.0 0.00 0.00 0.00 34 1012.4
20220929164523 77 70 2.0 7.0 0.00 0.00 0.00 35 1012.5
20220929163020 76 136 4.0 7.0 0.00 0.00 0.00 42 1012.5
20220929161518 74 42 2.0 5.0 0.00 0.00 0.00 43 1012.8
20220929160011 73 54 3.0 5.0 0.00 0.00 0.00 44 1013.0
20220929154507 72 354 2.0 6.0 0.00 0.00 0.00 45 1013.1
20220929153002 70 60 3.0 7.0 0.00 0.00 0.00 47 1013.2
20220929151616 67 84 3.0 7.0 0.00 0.00 0.00 48 1013.3
20220929150103 64 105 1.0 5.0 0.00 0.00 0.00 55 1013.3
20220929144550 62 51 1.0 4.0 0.00 0.00 0.00 60 1013.5
20220929143055 57 46 1.0 4.0 0.00 0.00 0.00 66 1013.5
20220929141546 54 1 3.0 6.0 0.00 0.00 0.00 73 1013.5
20220929140053 55 9 3.0 5.0 0.00 0.00 0.00 63 1013.5
20220929134542 55 245 1.0 3.0 0.00 0.00 0.00 65 1013.6
20220929133045 53 283 3.0 7.0 0.00 0.00 0.00 65 1013.4
20220929131540 53 306 1.0 2.0 0.00 0.00 0.00 63 1013.3
20220929130033 51 248 3.0 6.0 0.00 0.00 0.00 76 1013.4
20220929124531 53 354 7.0 10.0 0.00 0.00 0.00 61 1013.3
20220929123031 52 269 0.0 3.0 0.00 0.00 0.00 68 1013.4
20220929121541 54 1 4.0 6.0 0.00 0.00 0.00 59 1013.3
20220929120034 56 348 3.0 6.0 0.00 0.00 0.00 53 1013.5
20220929114528 56 20 0.0 4.0 0.00 0.00 0.00 54 1013.4
20220929113027 57 344 2.0 5.0 0.00 0.00 0.00 57 1013.5
20220929111526 53 276 3.0 5.0 0.00 0.00 0.00 64 1013.7
20220929110032 55 243 2.0 5.0 0.00 0.00 0.00 57 1013.7
20220929104536 54 243 3.0 5.0 0.00 0.00 0.00 61 1013.8
20220929103034 55 243 4.0 6.0 0.00 0.00 0.00 59 1013.8
20220929101523 53 262 3.0 5.0 0.00 0.00 0.00 66 1013.6
20220929100022 50 262 3.0 6.0 0.00 0.00 0.00 76 1013.5
20220929094522 54 164 3.0 5.0 0.00 0.00 0.00 61 1013.6
20220929093020 55 349 4.0 6.0 0.00 0.00 0.00 56 1013.6
20220929091519 56 46 1.0 4.0 0.00 0.00 0.00 57 1013.7
20220929090017 54 260 5.0 9.0 0.00 0.00 0.00 66 1013.8
20220929084514 52 252 4.0 7.0 0.00 0.00 0.00 67 1013.9
20220929083013 59 269 1.0 3.0 0.00 0.00 0.00 51 1014.0
20220929081511 60 178 2.0 5.0 0.00 0.00 0.00 49 1014.2
20220929080009 56 331 3.0 5.0 0.00 0.00 0.00 58 1014.2
20220929074508 57 260 2.0 6.0 0.00 0.00 0.00 60 1014.3
20220929073028 54 252 5.0 9.0 0.00 0.00 0.00 65 1014.3
20220929071503 56 215 3.0 6.0 0.00 0.00 0.00 62 1014.2
20220929070005 56 283 0.0 3.0 0.00 0.00 0.00 57 1014.2
20220929064500 54 276 2.0 5.0 0.00 0.00 0.00 68 1014.2
20220929063109 54 206 0.0 4.0 0.00 0.00 0.00 70 1014.4
20220929061607 55 219 2.0 4.0 0.00 0.00 0.00 60 1014.3
20220929060052 59 28 2.0 3.0 0.00 0.00 0.00 50 1014.3
20220929054557 57 9 3.0 6.0 0.00 0.00 0.00 52 1014.3
20220929053051 55 272 5.0 8.0 0.00 0.00 0.00 61 1014.3
20220929051602 59 258 2.0 6.0 0.00 0.00 0.00 53 1014.1
20220929050050 57 240 3.0 5.0 0.00 0.00 0.00 56 1014.2
20220929044552 57 269 2.0 6.0 0.00 0.00 0.00 57 1014.2
20220929043057 58 286 3.0 6.0 0.00 0.00 0.00 60 1014.3
20220929041549 62 118 3.0 7.0 0.00 0.00 0.00 45 1014.2
20220929040102 64 8 1.0 5.0 0.00 0.00 0.00 42 1014.0
20220929034548 66 250 4.0 6.0 0.00 0.00 0.00 39 1014.0
20220929033058 65 291 2.0 5.0 0.00 0.00 0.00 42 1013.6
20220929031555 64 178 2.0 6.0 0.00 0.00 0.00 46 1013.7
20220929030052 68 269 3.0 5.0 0.00 0.00 0.00 39 1013.5
20220929024546 68 210 2.0 5.0 0.00 0.00 0.00 43 1013.5
20220929023045 65 161 2.0 8.0 0.00 0.00 0.00 48 1013.5
20220929021548 70 258 2.0 5.0 0.00 0.00 0.00 37 1013.4
20220929020047 69 1 5.0 10.0 0.00 0.00 0.00 44 1013.3
20220929014544 70 206 3.0 8.0 0.00 0.00 0.00 43 1013.2
20220929013043 69 255 6.0 10.0 0.00 0.00 0.00 48 1013.2
20220929011559 70 278 4.0 8.0 0.00 0.00 0.00 44 1013.0
20220929010046 77 269 1.0 3.0 0.00 0.00 0.00 29 1013.2